IW4CYE-7 Weather Reports


time (UTC)temp
C
wind
direction
speed
KPH
gust
KPH
rain 1hr
cm
rain 24hr
cm
rain mn
cm
humidity
%
barometer
mb
20260906085721 29 56 0.0 1.6 0.00 0.00 0.00 65 1010.8
20260906084721 28 212 0.0 1.6 0.00 0.00 0.00 68 1010.8
20260906083721 28 162 0.0 0.0 0.00 0.00 0.00 72 1010.8
20260906082721 27 286 0.0 1.6 0.00 0.00 0.00 76 1010.8
20260906081721 27 185 0.0 0.0 0.00 0.00 0.00 76 1010.8
20260906080721 27 220 0.0 0.0 0.00 0.00 0.00 79 1010.8
20260906075721 26 287 0.0 1.6 0.00 0.00 0.00 83 1010.8
20260906074721 26 283 0.0 0.0 0.00 0.00 0.00 84 1010.5
20260906073721 25 297 3.2 4.8 0.00 0.00 0.00 85 1010.5
20260906072721 25 283 0.0 0.0 0.00 0.00 0.00 86 1010.2
20260906071721 25 268 3.2 4.8 0.00 0.00 0.00 86 1010.2
20260906070721 25 286 3.2 3.2 0.00 0.00 0.00 87 1010.2
20260906065721 24 286 0.0 0.0 0.00 0.00 0.00 89 1010.2
20260906064721 23 280 0.0 0.0 0.00 0.00 0.00 90 1009.8
20260906063721 23 271 0.0 1.6 0.00 0.00 0.00 91 1009.8
20260906062721 23 279 0.0 0.0 0.00 0.00 0.00 91 1009.8
20260906061721 22 276 0.0 0.0 0.00 0.00 0.00 92 1009.8
20260906060721 22 238 0.0 0.0 0.00 0.00 0.00 93 1010.2
20260906055721 22 258 0.0 0.0 0.00 0.00 0.00 94 1009.8
20260906054721 21 281 0.0 0.0 0.00 0.00 0.00 94 1009.5
20260906053721 21 282 0.0 0.0 0.00 0.00 0.00 94 1009.5
20260906052721 21 281 0.0 1.6 0.00 0.00 0.00 94 1009.1
20260906051721 21 241 0.0 0.0 0.00 0.00 0.00 95 1009.5
20260906050721 21 276 0.0 0.0 0.00 0.00 0.00 94 1009.1
20260906045721 21 283 0.0 0.0 0.00 0.00 0.00 94 1009.1
20260906044721 21 283 0.0 0.0 0.00 0.00 0.00 94 1009.1
20260906043721 21 287 0.0 0.0 0.00 0.00 0.00 94 1008.8
20260906042722 22 289 0.0 0.0 0.00 0.00 0.00 95 1009.1
20260906041722 22 291 0.0 0.0 0.00 0.00 0.00 94 1008.8
20260906040722 22 291 0.0 0.0 0.00 0.00 0.00 94 1008.5
20260906035722 22 293 0.0 0.0 0.00 0.00 0.00 93 1008.5
20260906034722 23 294 0.0 0.0 0.00 0.00 0.00 92 1008.5
20260906033722 23 352 0.0 0.0 0.00 0.00 0.00 91 1008.1
20260906032722 23 68 0.0 0.0 0.00 0.00 0.00 90 1008.5
20260906031722 23 92 0.0 0.0 0.00 0.00 0.00 90 1008.1
20260906030722 23 97 0.0 1.6 0.00 0.00 0.00 89 1008.1
20260906025722 23 173 0.0 0.0 0.00 0.00 0.00 88 1008.1
20260906024722 23 68 0.0 1.6 0.00 0.00 0.00 89 1008.1
20260906023722 23 78 0.0 0.0 0.00 0.00 0.00 88 1008.1
20260906022722 23 105 0.0 0.0 0.00 0.00 0.00 87 1008.1
20260906021722 23 56 0.0 1.6 0.00 0.00 0.00 86 1008.1
20260906020722 23 83 0.0 0.0 0.00 0.00 0.00 86 1007.8
20260906015722 23 76 0.0 0.0 0.00 0.00 0.00 87 1008.1
20260906014722 22 140 0.0 1.6 0.00 0.00 0.00 92 1007.8
20260906013722 22 84 0.0 0.0 0.00 0.00 0.00 94 1007.8
20260906012722 22 84 0.0 0.0 0.00 0.00 0.00 95 1007.5
20260906011722 22 70 0.0 0.0 0.00 0.00 0.00 95 1007.5
20260906010722 22 70 0.0 0.0 0.00 0.00 0.00 95 1007.8
20260906005722 22 71 0.0 0.0 0.00 0.00 0.00 94 1007.8
20260906004722 22 71 0.0 0.0 0.00 0.00 0.00 93 1007.5
20260906003722 22 71 0.0 0.0 0.00 0.00 0.00 93 1007.5
20260906002722 22 70 0.0 0.0 0.00 0.00 0.00 93 1007.5
20260906001721 23 70 0.0 0.0 0.00 0.00 0.00 92 1007.5
20260906000722 23 70 0.0 0.0 0.00 0.00 0.00 91 1007.5
20260905235722 23 70 0.0 0.0 0.00 0.00 0.00 90 1007.5
20260905234721 23 70 0.0 0.0 0.00 0.00 0.00 88 1007.5
20260905233721 23 70 0.0 0.0 0.00 0.00 0.00 86 1007.5
20260905232721 24 70 0.0 0.0 0.00 0.00 0.00 84 1007.5
20260905231721 25 69 0.0 1.6 0.00 0.00 0.00 84 1007.5
20260905230721 25 66 0.0 0.0 0.00 0.00 0.00 83 1007.5
20260905225721 25 67 0.0 1.6 0.00 0.00 0.00 82 1007.1
20260905224721 24 87 0.0 0.0 0.00 0.00 0.00 83 1007.5
20260905223721 25 87 0.0 0.0 0.00 0.00 0.00 82 1007.1
20260905222721 25 71 0.0 1.6 0.00 0.00 0.00 80 1007.1
20260905221721 25 76 0.0 1.6 0.00 0.00 0.00 79 1007.1
20260905220721 25 76 0.0 0.0 0.00 0.00 0.00 78 1007.1
20260905215721 25 63 0.0 3.2 0.00 0.00 0.00 77 1006.8
20260905214721 25 80 0.0 1.6 0.00 0.00 0.00 76 1006.8
20260905213721 25 66 0.0 1.6 0.00 0.00 0.00 76 1006.8
20260905212721 25 68 0.0 1.6 0.00 0.00 0.00 74 1006.8
20260905211721 25 62 1.6 3.2 0.00 0.00 0.00 72 1006.8
20260905210721 25 74 1.6 3.2 0.00 0.00 0.00 71 1006.8
20260905205721 25 80 1.6 3.2 0.00 0.00 0.00 70 1006.4
20260905204721 25 80 0.0 1.6 0.00 0.00 0.00 70 1006.4
20260905203721 26 69 1.6 3.2 0.00 0.00 0.00 69 1006.8
20260905202721 25 90 0.0 0.0 0.00 0.00 0.00 68 1006.4
20260905201721 26 86 0.0 1.6 0.00 0.00 0.00 66 1006.4
20260905194721 26 86 0.0 0.0 0.00 0.00 0.00 63 1006.1
20260905193721 27 79 0.0 1.6 0.00 0.00 0.00 61 1006.1
20260905192721 27 86 1.6 3.2 0.00 0.00 0.00 61 1006.1
20260905191721 27 82 0.0 0.0 0.00 0.00 0.00 59 1006.1
20260905190721 27 61 1.6 3.2 0.00 0.00 0.00 58 1005.8
20260905185721 27 125 0.0 0.0 0.00 0.00 0.00 59 1005.8
20260905184721 27 98 0.0 0.0 0.00 0.00 0.00 59 1005.8
20260905183721 28 66 0.0 1.6 0.00 0.00 0.00 59 1005.8
20260905182721 28 64 0.0 1.6 0.00 0.00 0.00 59 1005.4
20260905181721 28 152 0.0 0.0 0.00 0.00 0.00 58 1005.4
20260905180721 29 74 1.6 1.6 0.00 0.00 0.00 55 1005.1
20260905175721 29 59 0.0 1.6 0.00 0.00 0.00 56 1005.1
20260905174721 30 185 0.0 1.6 0.00 0.00 0.00 55 1005.1
20260905173721 30 162 0.0 0.0 0.00 0.00 0.00 56 1005.1
20260905172721 30 131 0.0 0.0 0.00 0.00 0.00 55 1005.1
20260905171721 31 140 0.0 0.0 0.00 0.00 0.00 54 1004.7
20260905170721 31 60 1.6 3.2 0.00 0.00 0.00 52 1004.7
20260905165721 33 83 4.8 6.4 0.00 0.00 0.00 49 1004.4
20260905164721 33 246 0.0 0.0 0.00 0.00 0.00 42 1004.4
20260905163721 34 274 0.0 1.6 0.00 0.00 0.00 39 1004.4
20260905162721 34 69 0.0 1.6 0.00 0.00 0.00 37 1004.1
20260905161721 34 118 0.0 0.0 0.00 0.00 0.00 38 1004.1
20260905154721 35 146 0.0 1.6 0.00 0.00 0.00 36 1004.1
20260905153721 35 255 0.0 0.0 0.00 0.00 0.00 36 1004.1
20260905152721 35 286 1.6 1.6 0.00 0.00 0.00 36 1004.1
20260905151721 36 260 0.0 0.0 0.00 0.00 0.00 35 1003.7
20260905150721 35 198 3.2 3.2 0.00 0.00 0.00 34 1004.1
20260905145721 36 272 0.0 0.0 0.00 0.00 0.00 34 1004.1
20260905144721 35 287 1.6 3.2 0.00 0.00 0.00 33 1004.1
20260905143721 36 248 0.0 1.6 0.00 0.00 0.00 34 1004.1
20260905142721 36 262 4.8 8.0 0.00 0.00 0.00 33 1004.1
20260905141721 36 280 1.6 3.2 0.00 0.00 0.00 36 1004.1
20260905140721 36 172 0.0 1.6 0.00 0.00 0.00 34 1004.4
20260905134721 36 270 3.2 4.8 0.00 0.00 0.00 36 1004.7
20260905133721 35 84 1.6 3.2 0.00 0.00 0.00 35 1005.1
20260905132721 35 284 4.8 8.0 0.00 0.00 0.00 36 1004.7
20260905131721 35 285 0.0 1.6 0.00 0.00 0.00 34 1005.1
20260905130721 35 241 3.2 4.8 0.00 0.00 0.00 36 1005.1
20260905125721 34 271 4.8 6.4 0.00 0.00 0.00 35 1005.1
20260905124721 35 313 1.6 3.2 0.00 0.00 0.00 36 1005.1
20260905123721 34 268 6.4 8.0 0.00 0.00 0.00 36 1005.4
20260905122721 33 258 1.6 4.8 0.00 0.00 0.00 35 1005.4
20260905121721 33 277 9.7 12.9 0.00 0.00 0.00 35 1005.8
20260905114721 33 265 3.2 6.4 0.00 0.00 0.00 38 1005.8
20260905113721 33 324 4.8 6.4 0.00 0.00 0.00 36 1005.4
20260905112722 32 224 3.2 4.8 0.00 0.00 0.00 38 1005.8
20260905111722 32 288 1.6 3.2 0.00 0.00 0.00 39 1005.8
20260905110722 33 268 3.2 4.8 0.00 0.00 0.00 37 1005.8
20260905105722 32 268 1.6 4.8 0.00 0.00 0.00 38 1005.8
20260905104722 32 268 3.2 4.8 0.00 0.00 0.00 39 1005.8
20260905103722 32 252 0.0 1.6 0.00 0.00 0.00 42 1005.8
20260905102722 32 272 1.6 4.8 0.00 0.00 0.00 40 1005.8
20260905101722 32 299 4.8 6.4 0.00 0.00 0.00 39 1006.1
20260905100722 31 276 4.8 8.0 0.00 0.00 0.00 40 1006.1
20260905095722 31 293 3.2 4.8 0.00 0.00 0.00 40 1006.1
20260905094722 31 235 1.6 3.2 0.00 0.00 0.00 43 1006.1
20260905093722 31 284 3.2 4.8 0.00 0.00 0.00 43 1006.1
20260905092722 31 285 8.0 12.9 0.00 0.00 0.00 43 1006.1
20260905091722 31 269 6.4 9.7 0.00 0.00 0.00 43 1006.1
20260905090722 30 276 8.0 12.9 0.00 0.00 0.00 44 1006.1